Location: El Gallo
(32.4380°N, 116.9347°W)
Time: 19:53:25
(UTC+00:00)

SL-16 R/B - Pass Details

Date: 01 October 2022
Orbit: 842 x 845 km, 71.0° (Epoch: 02 December)

Event Time Altitude Azimuth Distance (km) Brightness Sun altitude
Rises 13:06:28 0° 344° (NNW) 3,406 5.2 -8.3°
Reaches altitude 10° 13:08:58 10° 348° (NNW) 2,469 4.5 -7.8°
Maximum altitude 13:14:33 58° 67° (ENE) 981 3.0 -6.6°
Drops below altitude 10° 13:20:06 10° 146° (SSE) 2,458 5.1 -5.4°
Sets 13:22:34 0° 151° (SSE) 3,390 5.8 -4.9°
